Location: ?????
(38.2579°N, 22.9711°E)
Time: 13:34:00
(UTC+00:00)

Cosmos 1655 Rocket - Pass Details

Date: 13 December 2025
Orbit: 969 x 1006 km, 83.0° (Epoch: 17 January)

Event Time Altitude Azimuth Distance (km) Brightness Sun altitude
Rises 16:20:22 0° 353° (N) 3,676 6.9 -13.7°
Reaches altitude 10° 16:22:54 10° 353° (N) 2,722 6.2 -14.2°
Maximum altitude 16:29:08 90° 88° (E) 975 4.0 -15.4°
Drops below altitude 10° 16:35:20 10° 175° (S) 2,703 6.5 -16.5°
Sets 16:37:50 0° 175° (S) 3,648 7.2 -17.0°
